Location: Table Mountain
(47.2500°N, 120.5778°W)
Time: 10:56:51
(UTC-08:00)

N. Korean satellite - Pass Details

Date: 15 October 2017
Orbit: 461 x 513 km, 97.2° (Epoch: 13 December)

Event Time Altitude Azimuth Distance (km) Brightness Sun altitude
Rises 19:11:15 0° 174° (S) 2,533 10.2 -10.5°
Reaches altitude 10° 19:13:21 10° 178° (S) 1,649 9.3 -10.8°
Maximum altitude 19:16:51 60° 259° (W) 550 7.1 -11.4°
Drops below altitude 10° 19:20:19 10° 340° (NNW) 1,638 9.5 -12.0°
Sets 19:22:23 0° 345° (NNW) 2,513 10.4 -12.4°
